Regional Weather Roundup
Issued by NWS

Current Version | Previous Version | Text Only | Print | Product List | Glossary On
Versions: 1 2 3 4 5 6 7 8 9 10 11 12 13 14 15 16 17 18 19 20 21 22 23 24 25 26 27 28
000
ASUS44 KJAN 162310
RWRMS

MISSISSIPPI HOURLY WEATHER ROUNDUP
NATIONAL WEATHER SERVICE JACKSON MS
500 PM CST SAT DEC 16 2017

NOTE: "FAIR: INDICATES FEW OR NO CLOUDS BELOW 12,000 FEET WITH NO
SIGNIFICANT WEATHER AND/OR OBSTRUCTIONS TO VISIBILITY.

MSZ001>002-007>008-010>013-018>021-025>028-034>036-170000-
NORTHWEST MISSISSIPPI

CITY           SKY/WX    TMP DP  RH WIND       PRES   REMARKS
BATESVILLE     FAIR      51  26  38 CALM      30.18R
CLARKSDALE     CLEAR     48  32  53 SE5       30.16F
CLEVELAND      FAIR      49  32  50 S7        30.17S
GREENWOOD      PTCLDY    50  30  46 SE5       30.18S
GREENVILLE     CLOUDY    51  30  44 SE7       30.16R
OLIVE BRANCH   MOCLDY    48  27  43 SW7       30.15R
OXFORD         FAIR      48  28  46 CALM      30.19R
TUNICA           N/A    N/A N/A N/A S7        30.18S
WINONA         FAIR      46  32  56 CALM      30.18F
$$

MSZ003>006-009-014>017-022>024-029>033-037>039-170000-
NORTHEAST MISSISSIPPI

CITY           SKY/WX    TMP DP  RH WIND       PRES   REMARKS
ABERDEEN       FAIR      46  36  66 CALM      30.22S
COLUMBUS AFB   MOCLDY    46  31  55 CALM      30.21S
CORINTH        FAIR      48  28  46 S6        30.19R
GOLDN TRIANGLE PTCLDY    48  28  46 SE6       30.22S
STARKVILLE     FAIR      45  32  61 SE5       30.22S
TUPELO         PTCLDY    48  29  47 SE7       30.20S
$$

MSZ040-058-170000-
CENTRAL MISSISSIPPI

CITY           SKY/WX    TMP DP  RH WIND       PRES   REMARKS
JACKSON INTL   MOCLDY    52  31  44 SE7       30.18R
JACKSON HAWKNS PTCLDY    53  29  39 E5        30.18S
MADISON        FAIR      48  32  53 CALM      30.18F
MERIDIAN KEY   CLOUDY    51  30  44 E3        30.22R
MERIDIAN NAS   PTCLDY    50  29  44 SE3       30.23R
RAYMOND        FAIR      54  30  40 E3        30.17F
VICKSBURG VKS  CLEAR     55  27  33 SE5       30.17F
$$

MSZ059>079-170000-
SOUTH MISSISSIPPI

CITY           SKY/WX    TMP DP  RH WIND       PRES   REMARKS
HATTIESBURG    CLOUDY    53  35  50 E3        30.22S
LAUREL         FAIR      51  27  38 S3        30.22S
MCCOMB         CLEAR     53  32  44 SE6       30.18S
NATCHEZ        CLEAR     53  32  44 SE7       30.17S
PINE BELT      CLEAR     49  35  58 E3        30.22S
$$

MSZ080>082-170000-
COASTAL MISSISSIPPI

CITY           SKY/WX    TMP DP  RH WIND       PRES   REMARKS
BAY ST LOUIS   CLOUDY    52  41  66 CALM      30.21S
BILOXI         CLOUDY    54  41  62 E5        30.21F
PASCAGOULA     CLOUDY    54  38  54 SE3       30.23S
GULFPORT       CLOUDY    54  40  59 E7        30.21F
$$

LAZ007>009-015>016-023>026-170000-
NORTHEAST LOUISIANA

CITY           SKY/WX    TMP DP  RH WIND       PRES   REMARKS
BASTROP        FAIR      53  31  42 CALM      30.15S
TALLULAH/VBURG PTCLDY    53  32  44 E7        30.16F
VIDALIA          N/A    N/A N/A N/A MISG      30.16R
$$




USA.gov is the U.S. government's official web portal to all federal, state and local government web resources and services.